Volver al catálogo

CZ-6A DEB

ActivoPO
NORAD 61385·DEBRIS·🇨🇳 China

Lanzado Aug 6, 2024 desde Taiyuan Satellite Launch Center

Loading…

Próximos Pases (próximas 24 horas)

TLE

ActualizadoSource: Space-Track

Época: Sep 14, 2026, 10:11 UTC

1 61385U 24140XA  26257.42461492  .00034260  00000-0  18483-2 0  9999
2 61385  88.8452 240.6624 0057541 183.4733 176.6118 15.13166554109721

Sigue CZ-6A DEB en tiempo real con AllMySat

Download on the App Store